Starlink 33741

operational
NORAD ID: 63365 Int'l Des: 2025-063 Owner: SPXS Country: US Constellation: starlink
LEOCIRCULAR

Über Starlink 33741

Beschreibung wird geladen...

Live-Position

3D-Globus wird geladen...

Nächste Überflüge

Höhenverlauf

Altitude vs Time

uPlot chart will show altitude changes over time

Zweizeiliger Elementsatz

1 63365U 25063C 25349.67645291 .00018784 00000-0 64453-3 0 9995
2 63365 53.1591 82.9116 0001055 82.3065 277.8055 15.30209226 41897
Epoch: 15. Dez. 2025 • Age: 35 hours

Aktueller Status

Höhe 488.2 km
Geschwindigkeit 7.62 km/s
Subsatellitenpunkt -38.67°S, 150.73°E
Startdatum 26. März 2025
Alter 0.7 years
Typ internet

Technische Details

Klassifizierung Payload
Masse 575.00 kg
Trockenmasse 530.00 kg
Gesamtmasse 575.00 kg
Länge 0.30 m
Durchmesser 4.10 m
Spannweite 29.00 m
Form Box + pan
Hersteller SPXS
Bus-Typ Starlink V2MO
Phasenstatus In Orbit
Besitzer/Staat SPXS/US

Große Konstellationen

Loading constellations...